Weather History for Munising, MI

Change the Weather History Date:

Wednesday, January 23, 2013

  Actual Average (KISQ) Record (KISQ)
Temperature  
Mean Temperature 4 °F -  
Max Temperature 14 °F 29 °F 45 °F (1967)
Min Temperature -7 °F 11 °F -24 °F (1963)
Degree Days  
Heating Degree Days 62    
Moisture  
Dew Point -4 °F    
Average Humidity 67    
Maximum Humidity 80    
Minimum Humidity 49    
Precipitation  
Precipitation 0.17 in - - ()
Sea Level Pressure  
Sea Level Pressure 30.15 in    
Wind  
Wind Speed 9 mph (WSW)    
Max Wind Speed 24 mph    
Max Gust Speed 31 mph    
Averages and records for this station are not official NWS values.
T = Trace of Precipitation, MM = Missing Value Source: NWS Daily Summary

Daily Weather History Graph

Daily Weather History Graph

Search for Another Location

Airport:

Trip Planner

Search our weather history database for the weather conditions in past years. The results will help you decide how hot, cold, wet, or windy it might be!

Date:

Astronomy

Jan. 23, 2013 Rise Set
Actual Time 8:19 AM EST 5:38 PM EST
Civil Twilight 7:46 AM EST 6:11 PM EST
Nautical Twilight 7:09 AM EST 6:47 PM EST
Astronomical Twilight 6:34 AM EST 7:23 PM EST
Moon 2:45 PM EST (1/23) 5:33 AM EST (1/23)
Length of Visible Light 10h 24m
Length of Day
9h 18m
Waxing Gibbous, 89% of the Moon is Illuminated
Jan 23
Waxing Gibbous
Jan 26
Full
Feb 3
Last Quarter
Feb 10
New
Feb 17
First Quarter

Hourly Weather History & Observations

Time (EST) Temp. Windchill Dew Point Humidity Pressure Visibility Wind Dir Wind Speed Gust Speed Precip Events Conditions
12:56 AM -4.0 °F -21.2 °F -14.1 °F 62% 30.20 in - SW 10.4 mph - N/A   Unknown
1:56 AM -5.1 °F -20.4 °F -15.0 °F 62% 30.20 in - SSW 8.1 mph - N/A   Unknown
2:56 AM -7.1 °F -18.1 °F -15.0 °F 68% 30.19 in - SE 4.6 mph - N/A   Unknown
3:56 AM -5.1 °F -19.1 °F -14.1 °F 65% 30.18 in - SSE 6.9 mph - N/A   Unknown
4:56 AM -4.0 °F -19.0 °F -13.0 °F 65% 30.17 in - SSW 8.1 mph - N/A   Unknown
5:56 AM -4.0 °F -19.0 °F -11.9 °F 69% 30.15 in - SW 8.1 mph - N/A   Unknown
6:56 AM -2.9 °F -15.0 °F -11.0 °F 68% 30.14 in - SW 5.8 mph - N/A   Unknown
7:56 AM -2.9 °F -18.8 °F -11.0 °F 68% 30.12 in - SSW 9.2 mph - N/A   Unknown
8:56 AM -2.0 °F -16.6 °F -11.0 °F 66% 30.12 in - SSW 8.1 mph - N/A   Unknown
9:56 AM -2.0 °F -10.1 °F -9.9 °F 69% 30.12 in - Variable 3.5 mph - N/A   Unknown
10:56 AM 1.0 °F -6.7 °F -8.0 °F 66% 30.11 in - Variable 3.5 mph - N/A   Unknown
11:56 AM 5.0 °F -2.1 °F -5.1 °F 63% 30.09 in - South 3.5 mph - N/A   Unknown
12:56 PM 10.0 °F - -4.0 °F 53% 30.06 in - Calm Calm - N/A   Unknown
1:56 PM 12.0 °F 5.9 °F -4.0 °F 49% 30.04 in - WSW 3.5 mph - 0.01 in   Unknown
2:56 PM 12.0 °F 4.1 °F -0.0 °F 59% 30.04 in - WSW 4.6 mph - 0.07 in   Unknown
3:56 PM 12.9 °F 2.6 °F 1.0 °F 59% 30.05 in - West 6.9 mph - N/A   Unknown
4:56 PM 10.9 °F 2.9 °F 3.9 °F 73% 30.07 in - WSW 4.6 mph - N/A   Unknown
5:56 PM 10.9 °F -0.8 °F 5.0 °F 77% 30.09 in - WSW 8.1 mph 16.1 mph 0.03 in   Unknown
6:56 PM 14.0 °F -3.9 °F 9.0 °F 80% 30.12 in - North 20.7 mph 31.1 mph 0.01 in   Unknown
7:56 PM 12.9 °F -6.5 °F 7.0 °F 77% 30.17 in - North 24.2 mph - 0.03 in   Unknown
8:56 PM 12.0 °F -6.0 °F 6.1 °F 77% 30.24 in - North 19.6 mph 29.9 mph N/A   Unknown
9:56 PM 10.9 °F -7.5 °F 3.9 °F 73% 30.28 in - North 19.6 mph - 0.01 in   Unknown
10:56 PM 10.9 °F -7.5 °F 1.9 °F 67% 30.32 in - North 19.6 mph - 0.01 in   Unknown
11:56 PM 10.0 °F -8.1 °F 1.9 °F 70% 30.35 in - North 18.4 mph - N/A   Unknown